STARLINK-11736, 64317

Orbit data source: Space-Track

STARLINK-11736, 64317 is a payload satellite owned by SpaceX/Seattle (US) in LEO that was launched on Tue, 10 Jun 2025 UTC via an FALCON 9 launch vehicle from the Air Force Eastern Test Range (AFETR). Payload-class satellites include a variety of spacecraft equipped with specific instruments for various scientific and technological missions. These include communications satellites like Starlink; space stations such as the ISS; scientific satellites like the Hubble; Earth observation satellites from companies like Planet Labs, Umbra, and HawkEye 360; GPS; miniature CubeSats for education and research; and military/defense satellites.

Loading next visibility...
Identifier
64317, 2025-124A
Orbit
LEO
Last TLE update
17 hours ago
Origin
Manufacturer
SpaceX/Seattle
Mission
Operational spacecraft
Bus & Motor
STARLINK V2M, Unknown motor
Mass
730 kg wet, ~700 kg dry
Launch date (UTC)
2025-06-10 (3 weeks ago)
Launch vehicle
FALCON 9
Launch site
Air Force Eastern Test Range (AFETR)
Object type
Payload
Rocket body
Debris
Shape & HBR
Unknown
Radar Cross Section
Large (>1 m²)

Expand to show TLE details & history

TLE from 17 hours ago
0 STARLINK-11736
1 64317U 25124A   25182.21649376  .00171678  00000-0  96740-3 0  9990
2 64317  43.0004 105.9698 0001643 270.3423  89.7258 15.77907956  3274
Epoch: 2025-07-01T05:11Z
TLE epoch observation values (Epoch: 2025-07-01T05:11:45.06Z)
Latitude
-0.0001°
Longitude
108.51681°
Altitude
336.134 km
Speed
7.709 km/s
True Right ascension
07h 03m 52s
True Declination
0° 00' 00"
Sunlit
Object was in daylight at epoch
Visualization orbit readout
Latitude
36.42207°
Longitude
156.09548°
Altitude
338.271 km
Speed
7.711 km/s
Apparent Right ascension
13h 09m 38s
Apparent Declination
-7° 55' 01"
Sunlit
Object is in daylight
Visualization observer readout
Local Sidereal Time
09:49:53
Azimuth
124.177° SE
Elevation
23.614°
Doppler factor
1
Orbital elements
Apogee altitude
339.46 km
Perigee altitude
337.253 km
Semi-major axis
6,716.493 km
Eccentricity
0.00016
Inclination
43.0004°
RAAN
105.9698°
Arg. of periapsis
270.3423°
True anomaly
Unknown
Mean anomaly
89.7258°
Eccentric anomaly
Unknown
Mean motion
3.94302 °/min
Orbital period
91.3 mins
BSTAR
0.0009674
Loading maneuver chart data...
Loading SW <> Apogee altitude chart data...
Loading historical data...
Loading historical data...
Loading historical data...
Loading historical data...
Loading historical data...
Loading historical data...
Loading historical data...

STARLINK-11736 Visibility forecast

Observer location: undefined°, undefined°

Span
Click to sort rows by Start time (UTC) header in descending order
Start Az.
Max El. time (UTC)
Max El. Az.
Max El.
End time (UTC)
End Az.
4 mins2025-07-02 01:18:31.421Z298.708° NW2025-07-02 01:20:31.421Z24.886° NE32.733°2025-07-02 01:22:31.421Z74.393° E
4 mins2025-07-02 02:54:31.421Z283.995° WNW2025-07-02 02:55:31.421Z271.275° WNW40.356°2025-07-02 02:58:31.421Z113.91° SE
|